User: anonymous   Login
Location: Stoke Bliss
(52.2667°N, 2.5167°W)
Time: 03:52:12
(UTC+00:00)
Language:

Cosmos 1898 Rocket - Orbit

View from above orbital plane
View from above orbital plane
View from above satellite
View from above satellite

Ground track
Ground track

The orbit data is extracted from the following two-line orbital elements,

1 18586U 87098B   21128.39065370  .00000027  00000-0  18163-4 0  9999
2 18586  74.0069 197.9930 0022217 278.5063  81.3572 14.36948043751482
Epoch (UTC): 08 May 2021 09:22:32
Eccentricity: 0.0022217
inclination: 74.0069°
perigee height: 753 km
apogee height: 784 km
right ascension of ascending node: 197.9930°
argument of perigee: 278.5063°
revolutions per day: 14.36948043
mean anomaly at epoch: 81.3572°
orbit number at epoch: 75148

The dashed part of the orbit path shows where the satellite is in the earth's shadow,  

DLR